Location: Newark
(34.1333°N, 7.9667°W)
Time: 00:16:39
(UTC+00:00)

ITAMSAT 1 - Pass Details

Date: 25 April 2024
Orbit: 781 x 796 km, 98.8° (Epoch: 28 May)

Event Time Altitude Azimuth Distance (km) Brightness Sun altitude
Exits shadow 20:47:35 33° 141° (SE) 1,306 8.3 -18.9°
Maximum altitude 20:49:49 62° 74° (ENE) 894 7.7 -19.3°
Drops below altitude 10° 20:54:59 10° 355° (N) 2,370 10.6 -20.2°
Sets 20:57:20 0° 352° (N) 3,302 11.5 -20.6°
